User: anonymous   Login
Location: NJAA Observatory
(40.6819°N, 74.8979°W)
Time: 06:12:10
(UTC-04:00)
Language:

Meteor 1-28 Rocket - Orbit

View from above orbital plane
View from above orbital plane
View from above satellite
View from above satellite

Ground track
Ground track

The orbit data is extracted from the following two-line orbital elements,

1 10114U 77057B   16270.22912838  .00000780  00000-0  43256-4 0  9993
2 10114  97.2004  99.8849 0014749 155.6146 204.5789 15.16411932143546
Epoch (UTC): 26 September 2016 05:29:56
Eccentricity: 0.0014749
inclination: 97.2004°
perigee height: 506 km
apogee height: 527 km
right ascension of ascending node: 99.8849°
argument of perigee: 155.6146°
revolutions per day: 15.16411932
mean anomaly at epoch: 204.5789°
orbit number at epoch: 14354

The dashed part of the orbit path shows where the satellite is in the earth's shadow,  

DLR